Location: P�rn�nmaa
(61.1833°N, 23.0000°E)
Time: 19:45:35
(UTC+00:00)

Okean-O - Pass Details

Date: 08 December 2019
Orbit: 639 x 641 km, 98.2° (Epoch: 16 January)

Event Time Altitude Azimuth Distance (km) Brightness Sun altitude
Rises 16:26:10 0° 179° (S) 2,942 6.2 -20.5°
Reaches altitude 10° 16:28:26 10° 185° (S) 2,036 5.4 -20.8°
Maximum altitude 16:32:43 47° 260° (W) 860 3.7 -21.3°
Drops below altitude 10° 16:37:02 10° 335° (NNW) 2,050 5.4 -21.8°
Sets 16:39:20 0° 341° (NNW) 2,964 6.2 -22.1°
